Regional Weather Roundup
Issued by NWS

Home | Current Version | Previous Version | Text Only | Print | Product List | Glossary On
Versions: 1 2 3 4 5 6 7 8 9 10 11 12 13 14 15 16 17 18 19 20 21 22 23 24 25 26 27 28 29 30 31 32 33 34 35 36 37 38 39 40 41 42 43 44 45 46 47 48 49 50
042
ASUS42 KTBW 071316
RWRFL
FLORIDA REGIONAL WEATHER ROUNDUP
NATIONAL WEATHER SERVICE TAMPA BAY RUSKIN FL
800 AM EST SUN FEB 07 2016

NOTE: "FAIR" INDICATES FEW OR NO CLOUDS BELOW 12,000 FEET WITH NO
SIGNIFICANT WEATHER AND/OR OBSTRUCTIONS TO VISIBILITY.


FLZ001>010-012>015-112-114-115-071400-
PANHANDLE FLORIDA

CITY           SKY/WX    TMP DP  RH WIND       PRES   REMARKS
PENSACOLA      CLEAR     36  25  64 N7        30.25R WCI  30
PENSACOLA NAS  PTCLDY    36  26  67 W5        30.26  WCI  32
MILTON NAS     CLEAR     34  24  67 NW6       30.24  WCI  29
CRESTVIEW      CLEAR     34  23  64 N8        30.24R WCI  27
DUKE FIELD     FAIR      30  23  77 NW5       30.22R WCI  25
VALPARAISO     CLEAR     36  22  56 N9        30.22R WCI  29
MARY ESTHER    CLEAR     34  22  60 N7        30.23R WCI  28
TRI COUNTY     FAIR      34  28  79 W3        30.21R
PANAMA CITY    FAIR      34  29  82 NW6       30.20R WCI  29
TYNDALL AFB    CLEAR     40  28  61 N7        30.19R WCI  35
APALACHICOLA   CLEAR     36  34  92 NW6       30.18R WCI  31

STATION/POSITION SKY/WX   TEMP    WIND        PRES    WAVE   SWELL
                          AIR SEA DIR/SP/G            HT/PER HT/PER
                          (F)     (DEG/KT/KT) (MB)    (FT/S) (FT/S)
30.1N   87.6W              49 61  360/ 16/ 17 1024.3R   2/ 3
28.8N   86.0W              55 69  350/ 19/ 25 1021.6R   5/ 6
PANAMA CITY BEAC           38 61  350/  8/ 11 1022.4R
CAPE SAN BLAS    NOT AVBL
TOWER C          NOT AVBL
28.5N   84.5W              55 68  350/ 21/ 27 1020.3R   7/ 6

$$
FLZ011-016>038-118-127-128-134-139-239-071400-
NORTH FLORIDA

CITY           SKY/WX    TMP DP  RH WIND       PRES   REMARKS
MARIANNA       CLEAR     34  29  82 NW5       30.19R WCI  30
TALLAHASSEE    PTCLDY    37  31  78 NW7       30.16R WCI  32
PERRY          CLEAR     38  33  81 W5        30.12S WCI  34
LIVE OAK         N/A     39  37  93 W6        30.11R WCI  35
CROSS CITY       N/A     40  35  83 NW7       30.10R WCI  35
LAKE CITY      CLOUDY    39  37  93 NW7       30.07R WCI  34
GAINESVILLE    CLOUDY    41  37  86 NW10      30.05S WCI  35
WILLISTON      CLOUDY    45  39  81 NW8       30.09R WCI  40
KEYSTONE HEIGH CLOUDY    41  39  93 N13G21    30.04S WCI  34
PALATKA        CLOUDY    41  41 100 NW13G22   30.03R WCI  34
MAYPORT NAS    LGT RAIN  43  40  89 N14G21    29.98F WCI  36
JACKSONVILLE   CLOUDY    41  39  93 NW12      30.01S WCI  34
JAX NAS        CLOUDY    43  39  86 NW13      30.02R WCI  36
JAX CRAIG      CLOUDY    42  40  92 NW16      29.99F WCI  34
JAX CECIL      CLOUDY    39  39 100 N9        30.03R WCI  33
FERNANDINA BEA CLOUDY    45  41  87 N15G23    29.97F WCI  38
ST AUGUSTINE   LGT RAIN  43  41  93 W9        30.01R FOG     WCI  38
PALM COAST     CLOUDY   N/A N/A N/A NW12G23   29.99R

STATION/POSITION SKY/WX   TEMP    WIND        PRES    WAVE   SWELL
                          AIR SEA DIR/SP/G            HT/PER HT/PER
                          (F)     (DEG/KT/KT) (MB)    (FT/S) (FT/S)
SHELL POINT                38     340/  7/  8 1019.0
KEATON BEACH               41     320/  5/  9 1020.0R
CEDAR KEY                  43     340/  8/ 11 1019.8R
FERNANDINA                 44 56  320/  9/ 15 1016.2R
30.7N   81.3W                 56                N/A     7/ 8   2/11
MAYPORT                    42 56  330/ 15/ 20 1015.7R
31.4N   80.9W              44 56  350/ 25/ 29 1014.6S   7/ 8   3/ 8
ST AUGUSTINE               43 57  310/ 11/ 13 1016.3R

$$
FLZ040-043>046-052-053-057-058-063-144-071400-
INTERIOR CENTRAL FLORIDA

CITY           SKY/WX    TMP DP  RH WIND       PRES   REMARKS
OCALA          CLOUDY    43  36  75 NW14      30.07R WCI  36
THE VILLAGES     N/A     43  43 100 W14       29.96R WCI  36
LEESBURG       CLOUDY    44  41  89 NW12G22   30.05R WCI  38
SANFORD        CLOUDY    45  42  89 NW18      30.00S WCI  37
ORLANDO EXEC   CLOUDY    47  42  83 NW14      30.00S WCI  41
ORLANDO INTL   CLOUDY    46  42  86 NW14      30.01S WCI  40
KISSIMMEE      CLOUDY    46  45  93 NW12G18   30.03R WCI  41
WINTER HAVEN   CLOUDY    45  43  93 NW16G25   30.06R WCI  38
LAKELAND       CLOUDY    46  43  87 NW12      30.05R WCI  41
BARTOW         CLOUDY    45  41  87 NW13G23   30.05R WCI  38
OKEECHOBEE     CLOUDY    46  45  93 NW15G21   30.00F WCI  40

$$
FLZ041-047-054-059-064-141-147-071400-
EAST CENTRAL FLORIDA

CITY           SKY/WX    TMP DP  RH WIND       PRES   REMARKS
ORMOND BEACH   CLOUDY    45  41  87 W12       30.00R WCI  39
DAYTONA BEACH  CLOUDY    45  43  93 NW10G21   29.99R WCI  40
DELAND           N/A     45  43  93 NW16      30.00F WCI  37
NEW SMYRNA BEA MOCLDY    45  43  93 NW12      29.96R WCI  39
JFK SPACE CTR  CLOUDY    46  43  89 NW17      29.97R WCI  39
TITUSVILLE     MOCLDY    45  43  93 W16G28    29.99R WCI  37
CAPE CANAVERAL CLOUDY    46  44  91 W23G35    29.95R WCI  38
PATRICK AFB    CLOUDY    47  44  91 NW22      29.97R WCI  39
MELBOURNE      CLOUDY    47  44  90 W21G26    29.97R WCI  39
VERO BEACH     CLOUDY    48  44  86 W22G28    29.98R WCI  41
FT PIERCE      CLOUDY    48  45  89 W15G23    29.98R WCI  42
STUART         CLOUDY    54  45  71 NW14G26   30.00R

STATION/POSITION SKY/WX   TEMP    WIND        PRES    WAVE   SWELL
                          AIR SEA DIR/SP/G            HT/PER HT/PER
                          (F)     (DEG/KT/KT) (MB)    (FT/S) (FT/S)
28.5N   80.2W              53 71  310/ 27/ 35 1011.6R
28.9N   78.5W              66 74              1007.4R
TRIDENT PIER               47 65  280/ 13/ 18 1013.6R
28.4N   80.5W                 65                N/A     4/11   2/11
27.5N   80.2W                 73                N/A     5/ 5   2/13

$$
FLZ050-056-061-142-242-148-248-149-249-151-251-155-255-
160-260-071400-
WEST CENTRAL FLORIDA

CITY           SKY/WX    TMP DP  RH WIND       PRES   REMARKS
CRYSTAL RIVER  FAIR      43  37  81 NW6       30.09S WCI  39
INVERNESS      CLOUDY    43  39  87 N7        30.09R WCI  39
BROOKSVILLE    CLOUDY    45  39  79 NW14G24   30.08R WCI  38
ZEPHYRHILLS    CLOUDY    45  42  91 NW8       30.07R WCI  40
CLEARWATER AIR CLOUDY    48  43  81 N14G23    30.08R WCI  43
ST PETE CLEARW CLOUDY    50  44  80 N16G22    30.09R WCI  44
TAMPA INTL     CLOUDY    49  43  80 NW13G22   30.08R WCI  44
TAMPA EXEC     CLOUDY    50  45  81 NW6G17    30.07S
PLANT CITY     CLOUDY    48  46  93 NW6       30.07S
MACDILL AFB    CLOUDY    50  46  87 N14G24    30.08R WCI  45
PETER O KNIGHT CLOUDY    52  46  82 N10G21    30.07R
ST PETERSBURG  MOCLDY    51  44  77 N18G24    30.07R
SARASOTA       CLOUDY    52  42  69 NW15G31   30.07R
VENICE         PTSUNNY   54  43  66 N15G30    30.07S

STATION/POSITION SKY/WX   TEMP    WIND        PRES    WAVE   SWELL
                          AIR SEA DIR/SP/G            HT/PER HT/PER
                          (F)     (DEG/KT/KT) (MB)    (FT/S) (FT/S)
CEDAR KEY                  43     340/  8/ 11 1019.8R
28.5N   84.5W              55 68  350/ 21/ 27 1020.3R   7/ 6
27.3N   84.2W                 71                N/A     7/ 7
CLEARWATER BEACH           52 57  330/ 24/ 27 1017.7R
MIDDLE TAMPA BAY           51     340/ 12/ 16 1018.2R
VENICE                     55 62  340/ 25/ 30 1017.6R

$$
FLZ066-069-070-075>078-162-262-165-265-071400-
SOUTHWEST FLORIDA AND KEYS

CITY           SKY/WX    TMP DP  RH WIND       PRES   REMARKS
PUNTA GORDA    LGT RAIN  50  47  89 NW14      30.07R WCI  45
FT MYERS       LGT RAIN  51  46  83 N16       30.06R
SOUTHWEST INTL LGT RAIN  51  45  79 NW13G20   30.06R
NAPLES         CLOUDY    54  47  77 NW8G18    30.06R
MARCO ISLAND   PTSUNNY   54  43  66 N5        30.05R
MARATHON       LGT RAIN  59  54  83 N17G24    30.05R
KEY WEST NAS   LGT RAIN  58  54  86 N30G38    30.06R
KEY WEST INTL  LGT RAIN  58  57  97 N18G33    30.06R

STATION/POSITION SKY/WX   TEMP    WIND        PRES    WAVE   SWELL
                          AIR SEA DIR/SP/G            HT/PER HT/PER
                          (F)     (DEG/KT/KT) (MB)    (FT/S) (FT/S)
VENICE                     55 62  340/ 25/ 30 1017.6R
NAPLES                        64              1016.7R
26.0N   85.6W              63 80  340/ 23/ 27 1020.1R   6/ 6   2/16
DRY TORTUGAS                                    N/A
SAND KEY                   58     360/ 31/ 37 1017.7R
LONG KEY                   59 67  360/ 25/ 29 1017.8R
MOLASSES REEF              58 75  330/ 19/ 22 1016.1R

$$
FLZ067-068-071>074-168-172>174-071400-
SOUTHEAST FLORIDA

CITY           SKY/WX    TMP DP  RH WIND       PRES   REMARKS
W PALM BEACH   PTSUNNY   51  45  79 NW20G31   29.99R
BOCA RATON     PTSUNNY   52  46  82 NW13G25   29.99R
FT LAUDER-EXEC PTSUNNY   51  45  79 W14G28    30.01R
FT LAUDERDALE  PTSUNNY   52  44  74 NW16G24   30.01R
POMPANO BEACH  MOSUNNY   51  46  83 W17       30.00R
PEMBROKE PINES PTSUNNY   52  44  74 NW14G24   30.04R
OPA LOCKA      PTSUNNY   53  45  74 NW17      30.03R
MIAMI          MOSUNNY   53  45  74 NW13G22   30.03R
WEST KENDALL   PTSUNNY   52  46  80 NW18G31   30.03R
HOMESTEAD      MOSUNNY   54  48  80 NW13      30.02R

STATION/POSITION SKY/WX   TEMP    WIND        PRES    WAVEC1F1M1C2F2M2C3F3C4F4M3C5F5M4C6F6M5C7F7M6C8!



USA.gov is the U.S. government's official web portal to all federal, state and local government web resources and services.